{"data":{"norad_id":63559,"epoch":"2026-09-19T18:02:54.775968Z","epoch_age_seconds":220282,"freshness":"STALE","line1":"1 63559U 25075M   26262.75202287  .00143039  00000+0  10963-2 0  9998","line2":"2 63559  43.0008  63.6914 0001990 261.3973  98.6669 15.70901079 83772","mean_motion":15.70901079,"eccentricity":0.000199,"inclination_deg":43.0008,"raan_deg":63.6914,"arg_perigee_deg":261.3973,"mean_anomaly_deg":98.6669,"bstar":0.0010963,"rev_number":8377,"period_min":91.667134184965,"perigee_km":354.980334971,"apogee_km":357.66064905282,"semimajor_km":6734.4574920119,"source":"CELESTRAK","updated_at":"2026-09-21T09:00:35.021247Z"}}